This is the latest recevied weather packets stored in our database for station/object W4UWO. If no packets are shown the sender has not sent any weather packets the latest 10 day(s).
| Time | Temp. | Humidity | Pressure | Rain* | Wind** | Luminosity | Snow |
|---|---|---|---|---|---|---|---|
| 1787895415 | 22.22° C | 85% | 1017.2 hPa | 0 mm | - | 0 W/m² | - |
| 1787895111 | 22.22° C | 84% | 1017 hPa | 0 mm | - | 0 W/m² | - |
| 1787894806 | 22.22° C | 84% | 1016.8 hPa | 0 mm | - | 0 W/m² | - |
| 1787894502 | 22.22° C | 84% | 1017.1 hPa | 0 mm | - | 0 W/m² | - |
| 1787894201 | 22.78° C | 83% | 1017 hPa | 0 mm | - | 0 W/m² | - |
| 1787893897 | 22.78° C | 82% | 1017.1 hPa | 0 mm | - | 0 W/m² | - |
| 1787893594 | 23.33° C | 80% | 1017 hPa | 0 mm | - | 0 W/m² | - |
| 1787893289 | 23.33° C | 80% | 1016.8 hPa | 0 mm | - | 0 W/m² | - |
| 1787892985 | 23.33° C | 80% | 1017 hPa | 0 mm | - | 0 W/m² | - |
| 1787892681 | 23.33° C | 81% | 1016.9 hPa | 0 mm | - | 0 W/m² | - |
| 1787892377 | 23.33° C | 80% | 1016.9 hPa | 0 mm | - | 0 W/m² | - |
| 1787892072 | 23.33° C | 80% | 1016.6 hPa | 0 mm | - | 0 W/m² | - |
| 1787891767 | 23.33° C | 81% | 1016.6 hPa | 0 mm | - | 0 W/m² | - |
| 1787891464 | 23.33° C | 82% | 1016.7 hPa | 0 mm | - | 0 W/m² | - |
| 1787891162 | 23.33° C | 81% | 1016.7 hPa | 0 mm | - | 0 W/m² | - |
| 1787890857 | 23.89° C | 80% | 1016.7 hPa | 0 mm | - | 0 W/m² | - |
| 1787890557 | 23.33° C | 82% | 1016.7 hPa | 0 mm | - | 0 W/m² | - |
| 1787890252 | 23.33° C | 83% | 1016.8 hPa | 0 mm | - | 0 W/m² | - |
| 1787889948 | 23.33° C | 84% | 1016.7 hPa | 0 mm | - | 0 W/m² | - |
| 1787889642 | 23.33° C | 84% | 1016.7 hPa | 0 mm | - | 0 W/m² | - |
| 1787889337 | 23.89° C | 82% | 1016.7 hPa | 0 mm | - | 0 W/m² | - |
| 1787889036 | 24.44° C | 80% | 1016.5 hPa | 0 mm | - | 0 W/m² | - |
| 1787888731 | 24.44° C | 80% | 1016.6 hPa | 0 mm | - | 0 W/m² | - |
| 1787888426 | 24.44° C | 81% | 1016.4 hPa | 0 mm | - | 0 W/m² | - |
| 1787888121 | 23.89° C | 83% | 1016.6 hPa | 0 mm | - | 0 W/m² | - |
* Rain latest hour (hover to see other rain measurements)
** Current wind speed in m/s (hover to see current wind gust speed)